Satellite: OKEAN-4 Catalog number: 23317 Epoch time: 09078.47753210 Element set: 857 Inclination: 082.5368 deg RA of node: 058.1980 deg Eccentricity: 0.0020926 Arg of perigee: 303.7271 deg Mean anomaly: 056.1953 deg Mean motion: 14.82681669 rev/day Decay rate: 1.96e-06 rev/day^2 Epoch rev: 77907 Checksum: 334
Satellite: NOAA-14 Catalog number: 23455 Epoch time: 09077.79400439 Element set: 0551 Inclination: 098.9130 deg RA of node: 155.7729 deg Eccentricity: 0.0010346 Arg of perigee: 088.3369 deg Mean anomaly: 271.8987 deg Mean motion: 14.13757953 rev/day Decay rate: -2.87e-06 rev/day^2 Epoch rev: 73315 Checksum: 345
Satellite: NOAA-15 Catalog number: 25338 Epoch time: 09077.81088130 Element set: 0857 Inclination: 098.5808 deg RA of node: 069.0245 deg Eccentricity: 0.0010142 Arg of perigee: 326.6373 deg Mean anomaly: 033.4166 deg Mean motion: 14.24749001 rev/day Decay rate: -8.2e-07 rev/day^2 Epoch rev: 56390 Checksum: 301
Satellite: RESURS Catalog number: 25394 Epoch time: 09078.65416023 Element set: 168 Inclination: 098.3521 deg RA of node: 115.5181 deg Eccentricity: 0.0002206 Arg of perigee: 095.2869 deg Mean anomaly: 264.8561 deg Mean motion: 14.24180704 rev/day Decay rate: -3.3e-07 rev/day^2 Epoch rev: 55565 Checksum: 294
Satellite: FENGYUN1 Catalog number: 25730 Epoch time: 09077.95907590 Element set: 0748 Inclination: 098.7497 deg RA of node: 050.8426 deg Eccentricity: 0.0022868 Arg of perigee: 111.7909 deg Mean anomaly: 248.5696 deg Mean motion: 14.07947013 rev/day Decay rate: 6.03e-06 rev/day^2 Epoch rev: 50762 Checksum: 341
Satellite: OKEAN-0 Catalog number: 25860 Epoch time: 09078.47084335 Element set: 627 Inclination: 097.7793 deg RA of node: 063.2543 deg Eccentricity: 0.0001750 Arg of perigee: 084.3896 deg Mean anomaly: 275.7527 deg Mean motion: 14.73562796 rev/day Decay rate: 1.5e-07 rev/day^2 Epoch rev: 51993 Checksum: 339
Satellite: NOAA-16 Catalog number: 26536 Epoch time: 09077.83648341 Element set: 0331 Inclination: 099.1772 deg RA of node: 079.3205 deg Eccentricity: 0.0010694 Arg of perigee: 170.7733 deg Mean anomaly: 189.3626 deg Mean motion: 14.12513683 rev/day Decay rate: 2.31e-06 rev/day^2 Epoch rev: 43754 Checksum: 313
Satellite: NOAA-17 Catalog number: 27453 Epoch time: 09077.78445689 Element set: 0340 Inclination: 098.4936 deg RA of node: 139.9286 deg Eccentricity: 0.0012068 Arg of perigee: 032.8279 deg Mean anomaly: 327.3650 deg Mean motion: 14.24048554 rev/day Decay rate: 4.4e-07 rev/day^2 Epoch rev: 34988 Checksum: 349
Satellite: NOAA-18 Catalog number: 28654 Epoch time: 09077.79344072 Element set: 0830 Inclination: 098.8996 deg RA of node: 021.7689 deg Eccentricity: 0.0013400 Arg of perigee: 258.7238 deg Mean anomaly: 101.2434 deg Mean motion: 14.11241592 rev/day Decay rate: -6.4e-07 rev/day^2 Epoch rev: 19720 Checksum: 315
Satellite: NOAA-19 Catalog number: 33591 Epoch time: 09077.82500159 Element set: 0040 Inclination: 098.7380 deg RA of node: 025.9764 deg Eccentricity: 0.0014669 Arg of perigee: 136.8173 deg Mean anomaly: 223.4135 deg Mean motion: 14.10944167 rev/day Decay rate: 3.28e-06 rev/day^2 Epoch rev: 00569 Checksum: 311
/EX SB KEPS @ AMSAT $ORB09078.M Orbital Elements 09078.MISC
HR AMSAT ORBITAL ELEMENTS FOR MANNED AND MISCELLANEOUS SATELLITES FROM WA5QGD FORT WORTH,TX March 19, 2009 Send Subscribe/unsubscribe to KEPS at http://www.amsat.org/mailman/listinfo/keps BID: ORB09078.M TO ALL RADIO AMATEURS BT
Satellite: HUBBLE Catalog number: 20580 Epoch time: 09078.79080150 Element set: 351 Inclination: 028.4693 deg RA of node: 325.5652 deg Eccentricity: 0.0003794 Arg of perigee: 065.3324 deg Mean anomaly: 294.7653 deg Mean motion: 15.00464984 rev/day Decay rate: 3.75e-06 rev/day^2 Epoch rev: 83641 Checksum: 307
Satellite: PO-34 Catalog number: 25520 Epoch time: 09077.55380501 Element set: 207 Inclination: 028.4592 deg RA of node: 141.7648 deg Eccentricity: 0.0005091 Arg of perigee: 037.6351 deg Mean anomaly: 322.4604 deg Mean motion: 15.17310412 rev/day Decay rate: 5.41e-06 rev/day^2 Epoch rev: 57487 Checksum: 278
Satellite: ISS Catalog number: 25544 Epoch time: 09077.82043242 Element set: 0488 Inclination: 051.6415 deg RA of node: 049.9373 deg Eccentricity: 0.0009630 Arg of perigee: 134.8683 deg Mean anomaly: 313.1253 deg Mean motion: 15.71465406 rev/day Decay rate: -4.85e-06 rev/day^2 Epoch rev: 59173 Checksum: 305
Satellite: CO-58 Catalog number: 28895 Epoch time: 09077.72152952 Element set: 259 Inclination: 098.0707 deg RA of node: 330.8180 deg Eccentricity: 0.0016734 Arg of perigee: 272.2692 deg Mean anomaly: 087.6612 deg Mean motion: 14.59749892 rev/day Decay rate: 4.4e-07 rev/day^2 Epoch rev: 18053 Checksum: 346
Satellite: FALCON Catalog number: 30776 Epoch time: 09077.90373943 Element set: 0537 Inclination: 035.4339 deg RA of node: 287.1573 deg Eccentricity: 0.0001492 Arg of perigee: 263.5448 deg Mean anomaly: 096.5099 deg Mean motion: 15.03191530 rev/day Decay rate: 3.72e-06 rev/day^2 Epoch rev: 11150 Checksum: 302
Satellite: MAST Catalog number: 31126 Epoch time: 09077.64679068 Element set: 0552 Inclination: 097.9996 deg RA of node: 136.5547 deg Eccentricity: 0.0094605 Arg of perigee: 200.2757 deg Mean anomaly: 159.4660 deg Mean motion: 14.53483918 rev/day Decay rate: 1.6e-07 rev/day^2 Epoch rev: 10188 Checksum: 333
Satellite: CAPE1 Catalog number: 31130 Epoch time: 09077.80265533 Element set: 0560 Inclination: 098.0027 deg RA of node: 135.0893 deg Eccentricity: 0.0102522 Arg of perigee: 204.5555 deg Mean anomaly: 155.0737 deg Mean motion: 14.52041099 rev/day Decay rate: 1.98e-06 rev/day^2 Epoch rev: 10157 Checksum: 272
Satellite: COMPASS Catalog number: 32787 Epoch time: 09077.19806277 Element set: 0313 Inclination: 097.9532 deg RA of node: 141.7546 deg Eccentricity: 0.0015122 Arg of perigee: 332.1306 deg Mean anomaly: 027.9092 deg Mean motion: 14.81563023 rev/day Decay rate: 2.86e-06 rev/day^2 Epoch rev: 04797 Checksum: 303
Satellite: AAUSAT2 Catalog number: 32788 Epoch time: 09077.44354801 Element set: 0309 Inclination: 097.9538 deg RA of node: 142.0445 deg Eccentricity: 0.0015102 Arg of perigee: 333.2121 deg Mean anomaly: 026.8264 deg Mean motion: 14.81682894 rev/day Decay rate: 1.3e-07 rev/day^2 Epoch rev: 04801 Checksum: 285
Satellite: DO-64 Catalog number: 32789 Epoch time: 09077.73357433 Element set: 317 Inclination: 097.9573 deg RA of node: 142.4401 deg Eccentricity: 0.0015188 Arg of perigee: 329.7245 deg Mean anomaly: 030.3086 deg Mean motion: 14.81639431 rev/day Decay rate: 2.94e-06 rev/day^2 Epoch rev: 4805 Checksum: 321
Satellite: CO-66 Catalog number: 32791 Epoch time: 09078.17628724 Element set: 300 Inclination: 097.9557 deg RA of node: 142.7576 deg Eccentricity: 0.0015506 Arg of perigee: 327.1718 deg Mean anomaly: 032.8528 deg Mean motion: 14.81400818 rev/day Decay rate: 1.03e-06 rev/day^2 Epoch rev: 4808 Checksum: 315
Satellite: RS-30 Catalog number: 32953 Epoch time: 09077.71937032 Element set: 0259 Inclination: 082.5033 deg RA of node: 312.8830 deg Eccentricity: 0.0019818 Arg of perigee: 018.3547 deg Mean anomaly: 341.8244 deg Mean motion: 12.43000083 rev/day Decay rate: 1.0e-07 rev/day^2 Epoch rev: 03715 Checksum: 272
/EX